This demonstration page uses our WeatherBlox Daily Observations layout. Learn more.

Left ArrowRight Arrow

34.02893, -84.19858

Hourly Observations for May 19, 2022

Temp ( °F °C ) Dew Point ( °F °C ) Humidity (%) Winds ( mph kmh ) Pressure ( in mb ) Visibility ( mi km ) Precip ( " mm )
12:53 am 00:53 Clear 75 23.9 61 16.1 62 62 SW 9 15 29.88 1012 10 16 0.00 0.00
1:53 am 01:53 Clear 74 23.3 62 16.7 67 67 SW 7 11 29.87 1012 10 16 0.00 0.00
2:53 am 02:53 Clear 70 21.1 62 16.7 76 76 S 3 6 29.85 1011 10 16 0.00 0.00
3:53 am 03:53 Clear 69 20.6 62 16.7 78 78 SW 3 6 29.84 1011 10 16 0.00 0.00
4:53 am 04:53 Clear 69 20.6 62 16.7 78 78 SW 5 7 29.85 1011 10 16 0.00 0.00
5:53 am 05:53 Clear 70 21.1 64 17.8 82 82 SW 6 9 29.86 1011 10 16 0.00 0.00
6:53 am 06:53 Partly Cloudy 69 20.6 64 17.8 84 84 SW 7 11 29.88 1012 9 14 0.00 0.00
7:53 am 07:53 Sunny 72 22.2 65 18.3 79 79 Calm 29.89 1012 9 14 0.00 0.00
8:53 am 08:53 Sunny 76 24.4 67 19.4 74 74 WSW 8 13 29.90 1013 9 14 0.00 0.00
9:53 am 09:53 Sunny 80 26.7 68 20 67 67 WSW 10 17 29.90 1012 10 16 0.00 0.00
10:53 am 10:53 Mostly Sunny 83 28.3 68 20 61 61 W 10 17 29.89 1012 10 16 0.00 0.00
11:53 am 11:53 Mostly Sunny 86 30 68 20 55 55 WSW 9 15 29.87 1012 10 16 0.00 0.00
12:53 pm 12:53 Mostly Sunny 88 31.1 67 19.4 50 50 undefined N/A 29.87 1012 10 16 0.00 0.00
1:53 pm 13:53 Sunny 89 31.7 65 18.3 45 45 WSW 10 17 29.85 1011 10 16 0.00 0.00
2:53 pm 14:53 Mostly Cloudy 88 31.1 66 18.9 48 48 WSW 13 20 29.83 1010 10 16 0.00 0.00
3:53 pm 15:53 Mostly Sunny 90 32.2 65 18.3 44 44 SSW 14 22 29.81 1010 10 16 0.00 0.00
4:53 pm 16:53 Sunny 91 32.8 65 18.3 42 42 SW 14 22 29.79 1009 10 16 0.00 0.00
5:53 pm 17:53 Mostly Sunny 89 31.7 66 18.9 47 47 SSW 12 19 29.79 1009 10 16 0.00 0.00
6:53 pm 18:53 Sunny 87 30.6 65 18.3 48 48 S 12 19 29.78 1009 10 16 0.00 0.00
7:53 pm 19:53 Sunny 85 29.4 65 18.3 51 51 SW 12 19 29.79 1009 10 16 0.00 0.00
8:53 pm 20:53 Clear 82 27.8 65 18.3 56 56 SW 9 15 29.81 1010 10 16 0.00 0.00
9:53 pm 21:53 Clear 79 26.1 66 18.9 65 65 SW 6 9 29.83 1010 10 16 0.00 0.00
10:53 pm 22:53 Clear 76 24.4 66 18.9 72 72 S 3 6 29.84 1011 10 16 0.00 0.00
11:53 pm 23:53 Clear 75 23.9 66 18.9 74 74 SSE 5 7 29.83 1010 10 16 0.00 0.00

Powered by AerisWeather